owner,sensor,date,latitude,longitude,vertical_datum,sea_water_practical_salinity,qcFlag 
DISL,ioos:station:DISL:MHPA:1,2017-10-01T00:00:00Z,30.6671,-87.9365,1.017,3.14,1111122 
DISL,ioos:station:DISL:MHPA:1,2017-10-01T00:30:00Z,30.6671,-87.9365,1.053,3.15,1111122 
DISL,ioos:station:DISL:MHPA:1,2017-10-01T01:00:00Z,30.6671,-87.9365,1.015,3.09,1111122 
DISL,ioos:station:DISL:MHPA:1,2017-10-01T01:30:00Z,30.6671,-87.9365,1.032,3.15,1111122 
DISL,ioos:station:DISL:MHPA:1,2017-10-01T02:00:00Z,30.6671,-87.9365,1.029,3.1,1111122 
DISL,ioos:station:DISL:MHPA:1,2017-10-01T02:30:00Z,30.6671,-87.9365,1.065,3.1,1111122 
DISL,ioos:station:DISL:MHPA:1,2017-10-01T03:00:00Z,30.6671,-87.9365,1.104,3.13,1111122 
DISL,ioos:station:DISL:MHPA:1,2017-10-01T03:30:00Z,30.6671,-87.9365,1.125,3.12,1111122 
DISL,ioos:station:DISL:MHPA:1,2017-10-01T04:00:00Z,30.6671,-87.9365,1.204,3.15,1111122 
DISL,ioos:station:DISL:MHPA:1,2017-10-01T04:30:00Z,30.6671,-87.9365,1.195,3.15,1111122 
DISL,ioos:station:DISL:MHPA:1,2017-10-01T05:00:00Z,30.6671,-87.9365,1.178,3.16,1111122 
DISL,ioos:station:DISL:MHPA:1,2017-10-01T05:30:00Z,30.6671,-87.9365,1.206,3.15,1111122 
DISL,ioos:station:DISL:MHPA:1,2017-10-01T06:00:00Z,30.6671,-87.9365,1.238,3.15,1111122 
DISL,ioos:station:DISL:MHPA:1,2017-10-01T06:30:00Z,30.6671,-87.9365,1.263,3.15,1111122 
DISL,ioos:station:DISL:MHPA:1,2017-10-01T07:00:00Z,30.6671,-87.9365,1.255,3.15,1111122 
DISL,ioos:station:DISL:MHPA:1,2017-10-01T07:30:00Z,30.6671,-87.9365,1.244,3.16,1111122 
DISL,ioos:station:DISL:MHPA:1,2017-10-01T08:00:00Z,30.6671,-87.9365,1.272,3.15,1111122 
DISL,ioos:station:DISL:MHPA:1,2017-10-01T08:30:00Z,30.6671,-87.9365,1.299,3.16,1111122 
DISL,ioos:station:DISL:MHPA:1,2017-10-01T09:00:00Z,30.6671,-87.9365,1.368,3.15,1111122 
DISL,ioos:station:DISL:MHPA:1,2017-10-01T09:30:00Z,30.6671,-87.9365,1.391,3.17,1111122 
DISL,ioos:station:DISL:MHPA:1,2017-10-01T10:00:00Z,30.6671,-87.9365,1.365,3.18,1111122 
DISL,ioos:station:DISL:MHPA:1,2017-10-01T10:30:00Z,30.6671,-87.9365,1.381,3.19,1111122 
DISL,ioos:station:DISL:MHPA:1,2017-10-01T11:00:00Z,30.6671,-87.9365,1.39,3.18,1111122 
DISL,ioos:station:DISL:MHPA:1,2017-10-01T11:30:00Z,30.6671,-87.9365,1.387,3.14,1111122 
DISL,ioos:station:DISL:MHPA:1,2017-10-01T12:00:00Z,30.6671,-87.9365,1.379,3.14,1111122 
DISL,ioos:station:DISL:MHPA:1,2017-10-01T12:30:00Z,30.6671,-87.9365,1.417,3.14,1111122 
DISL,ioos:station:DISL:MHPA:1,2017-10-01T13:00:00Z,30.6671,-87.9365,1.388,3.16,1111122 
DISL,ioos:station:DISL:MHPA:1,2017-10-01T13:30:00Z,30.6671,-87.9365,1.396,3.24,1111122 
DISL,ioos:station:DISL:MHPA:1,2017-10-01T14:00:00Z,30.6671,-87.9365,1.433,3.34,1111122 
DISL,ioos:station:DISL:MHPA:1,2017-10-01T14:30:00Z,30.6671,-87.9365,1.401,3.39,1111122 
DISL,ioos:station:DISL:MHPA:1,2017-10-01T15:00:00Z,30.6671,-87.9365,1.367,3.37,1111122 
DISL,ioos:station:DISL:MHPA:1,2017-10-01T15:30:00Z,30.6671,-87.9365,1.38,3.39,1111122 
DISL,ioos:station:DISL:MHPA:1,2017-10-01T16:00:00Z,30.6671,-87.9365,1.386,3.47,1111122 
DISL,ioos:station:DISL:MHPA:1,2017-10-01T16:30:00Z,30.6671,-87.9365,1.397,3.68,1111122 
DISL,ioos:station:DISL:MHPA:1,2017-10-01T17:00:00Z,30.6671,-87.9365,1.386,3.59,1111122 
DISL,ioos:station:DISL:MHPA:1,2017-10-01T17:30:00Z,30.6671,-87.9365,1.369,3.86,1111122 
DISL,ioos:station:DISL:MHPA:1,2017-10-01T18:00:00Z,30.6671,-87.9365,1.355,3.8,1111122 
DISL,ioos:station:DISL:MHPA:1,2017-10-01T18:30:00Z,30.6671,-87.9365,1.348,3.94,1111122 
DISL,ioos:station:DISL:MHPA:1,2017-10-01T19:00:00Z,30.6671,-87.9365,1.318,4.1,1111122 
DISL,ioos:station:DISL:MHPA:1,2017-10-01T19:30:00Z,30.6671,-87.9365,1.29,4.27,1111122 
DISL,ioos:station:DISL:MHPA:1,2017-10-01T20:00:00Z,30.6671,-87.9365,1.281,4.34,1111122 
DISL,ioos:station:DISL:MHPA:1,2017-10-01T20:30:00Z,30.6671,-87.9365,1.265,4.39,1111122 
DISL,ioos:station:DISL:MHPA:1,2017-10-01T21:00:00Z,30.6671,-87.9365,1.25,4.14,1111122 
DISL,ioos:station:DISL:MHPA:1,2017-10-01T21:30:00Z,30.6671,-87.9365,1.234,4.45,1111122 
DISL,ioos:station:DISL:MHPA:1,2017-10-01T22:00:00Z,30.6671,-87.9365,1.201,4.49,1111122 
DISL,ioos:station:DISL:MHPA:1,2017-10-01T22:30:00Z,30.6671,-87.9365,1.209,4.54,1111122 
DISL,ioos:station:DISL:MHPA:1,2017-10-01T23:00:00Z,30.6671,-87.9365,1.161,4.57,1111122 
DISL,ioos:station:DISL:MHPA:1,2017-10-01T23:30:00Z,30.6671,-87.9365,1.125,4.47,1111122 
DISL,ioos:station:DISL:MHPA:1,2017-10-02T00:00:00Z,30.6671,-87.9365,1.111,4.57,1111122 
DISL,ioos:station:DISL:MHPA:1,2017-10-02T00:30:00Z,30.6671,-87.9365,1.103,4.64,1111122 
DISL,ioos:station:DISL:MHPA:1,2017-10-02T01:00:00Z,30.6671,-87.9365,1.072,4.58,1111122 
DISL,ioos:station:DISL:MHPA:1,2017-10-02T01:30:00Z,30.6671,-87.9365,1.061,4.49,1111122 
DISL,ioos:station:DISL:MHPA:1,2017-10-02T02:00:00Z,30.6671,-87.9365,1.066,4.5,1111122 
DISL,ioos:station:DISL:MHPA:1,2017-10-02T02:30:00Z,30.6671,-87.9365,1.074,4.48,1111122 
DISL,ioos:station:DISL:MHPA:1,2017-10-02T03:00:00Z,30.6671,-87.9365,1.042,4.53,1111122 
DISL,ioos:station:DISL:MHPA:1,2017-10-02T03:30:00Z,30.6671,-87.9365,1.071,4.52,1111122 
DISL,ioos:station:DISL:MHPA:1,2017-10-02T04:00:00Z,30.6671,-87.9365,1.109,4.5,1111122 
DISL,ioos:station:DISL:MHPA:1,2017-10-02T04:30:00Z,30.6671,-87.9365,1.118,4.51,1111122 
DISL,ioos:station:DISL:MHPA:1,2017-10-02T05:00:00Z,30.6671,-87.9365,1.146,4.51,1111122 
DISL,ioos:station:DISL:MHPA:1,2017-10-02T05:30:00Z,30.6671,-87.9365,1.189,4.48,1111122 
DISL,ioos:station:DISL:MHPA:1,2017-10-02T06:00:00Z,30.6671,-87.9365,1.216,4.5,1111122 
DISL,ioos:station:DISL:MHPA:1,2017-10-02T06:30:00Z,30.6671,-87.9365,1.241,4.52,1111122 
DISL,ioos:station:DISL:MHPA:1,2017-10-02T07:00:00Z,30.6671,-87.9365,1.261,4.47,1111122 
DISL,ioos:station:DISL:MHPA:1,2017-10-02T07:30:00Z,30.6671,-87.9365,1.306,4.16,1111122 
DISL,ioos:station:DISL:MHPA:1,2017-10-02T08:00:00Z,30.6671,-87.9365,1.333,4.17,1111122 
DISL,ioos:station:DISL:MHPA:1,2017-10-02T08:30:00Z,30.6671,-87.9365,1.358,4.38,1111122 
DISL,ioos:station:DISL:MHPA:1,2017-10-02T09:00:00Z,30.6671,-87.9365,1.389,4.55,1111122 
DISL,ioos:station:DISL:MHPA:1,2017-10-02T09:30:00Z,30.6671,-87.9365,1.399,4.01,1111122 
DISL,ioos:station:DISL:MHPA:1,2017-10-02T10:00:00Z,30.6671,-87.9365,1.418,4.21,1111122 
DISL,ioos:station:DISL:MHPA:1,2017-10-02T10:30:00Z,30.6671,-87.9365,1.468,4.44,1111122 
DISL,ioos:station:DISL:MHPA:1,2017-10-02T11:00:00Z,30.6671,-87.9365,1.478,4.33,1111122 
DISL,ioos:station:DISL:MHPA:1,2017-10-02T11:30:00Z,30.6671,-87.9365,1.484,4.21,1111122 
DISL,ioos:station:DISL:MHPA:1,2017-10-02T12:00:00Z,30.6671,-87.9365,1.52,4.42,1111122 
DISL,ioos:station:DISL:MHPA:1,2017-10-02T12:30:00Z,30.6671,-87.9365,1.544,4.27,1111122 
DISL,ioos:station:DISL:MHPA:1,2017-10-02T13:00:00Z,30.6671,-87.9365,1.565,4.22,1111122 
DISL,ioos:station:DISL:MHPA:1,2017-10-02T13:30:00Z,30.6671,-87.9365,1.587,4.28,1111122 
DISL,ioos:station:DISL:MHPA:1,2017-10-02T14:00:00Z,30.6671,-87.9365,1.587,4.33,1111122 
DISL,ioos:station:DISL:MHPA:1,2017-10-02T14:30:00Z,30.6671,-87.9365,1.591,4.31,1111122 
DISL,ioos:station:DISL:MHPA:1,2017-10-02T15:00:00Z,30.6671,-87.9365,1.59,4.35,1111122 
DISL,ioos:station:DISL:MHPA:1,2017-10-02T15:30:00Z,30.6671,-87.9365,1.605,4.4,1111122 
DISL,ioos:station:DISL:MHPA:1,2017-10-02T16:00:00Z,30.6671,-87.9365,1.613,4.48,1111122 
DISL,ioos:station:DISL:MHPA:1,2017-10-02T16:30:00Z,30.6671,-87.9365,1.605,4.49,1111122 
DISL,ioos:station:DISL:MHPA:1,2017-10-02T17:00:00Z,30.6671,-87.9365,1.593,4.64,1111122 
DISL,ioos:station:DISL:MHPA:1,2017-10-02T17:30:00Z,30.6671,-87.9365,1.566,4.57,1111122 
DISL,ioos:station:DISL:MHPA:1,2017-10-02T18:00:00Z,30.6671,-87.9365,1.575,4.53,1111122 
DISL,ioos:station:DISL:MHPA:1,2017-10-02T18:30:00Z,30.6671,-87.9365,1.555,4.49,1111122 
DISL,ioos:station:DISL:MHPA:1,2017-10-02T19:00:00Z,30.6671,-87.9365,1.548,4.49,1111122 
DISL,ioos:station:DISL:MHPA:1,2017-10-02T19:30:00Z,30.6671,-87.9365,1.51,4.51,1111122 
DISL,ioos:station:DISL:MHPA:1,2017-10-02T20:00:00Z,30.6671,-87.9365,1.475,4.5,1111122 
DISL,ioos:station:DISL:MHPA:1,2017-10-02T20:30:00Z,30.6671,-87.9365,1.449,4.53,1111122 
DISL,ioos:station:DISL:MHPA:1,2017-10-02T21:00:00Z,30.6671,-87.9365,1.418,4.51,1111122 
DISL,ioos:station:DISL:MHPA:1,2017-10-02T21:30:00Z,30.6671,-87.9365,1.399,4.47,1111122 
DISL,ioos:station:DISL:MHPA:1,2017-10-02T22:00:00Z,30.6671,-87.9365,1.37,4.51,1111122 
DISL,ioos:station:DISL:MHPA:1,2017-10-02T22:30:00Z,30.6671,-87.9365,1.332,4.75,1111122 
DISL,ioos:station:DISL:MHPA:1,2017-10-02T23:00:00Z,30.6671,-87.9365,1.307,4.76,1111122 
DISL,ioos:station:DISL:MHPA:1,2017-10-02T23:30:00Z,30.6671,-87.9365,1.32,4.63,1111122 
DISL,ioos:station:DISL:MHPA:1,2017-10-03T00:00:00Z,30.6671,-87.9365,1.317,4.64,1111122 
DISL,ioos:station:DISL:MHPA:1,2017-10-03T00:30:00Z,30.6671,-87.9365,1.362,4.88,1111122 
DISL,ioos:station:DISL:MHPA:1,2017-10-03T01:00:00Z,30.6671,-87.9365,1.35,4.77,1111122 
DISL,ioos:station:DISL:MHPA:1,2017-10-03T01:30:00Z,30.6671,-87.9365,1.343,4.86,1111122 
DISL,ioos:station:DISL:MHPA:1,2017-10-03T02:00:00Z,30.6671,-87.9365,1.348,4.84,1111122 
DISL,ioos:station:DISL:MHPA:1,2017-10-03T02:30:00Z,30.6671,-87.9365,1.326,4.83,1111122 
DISL,ioos:station:DISL:MHPA:1,2017-10-03T03:00:00Z,30.6671,-87.9365,1.325,4.87,1111122 
DISL,ioos:station:DISL:MHPA:1,2017-10-03T03:30:00Z,30.6671,-87.9365,1.341,4.86,1111122 
DISL,ioos:station:DISL:MHPA:1,2017-10-03T04:00:00Z,30.6671,-87.9365,1.352,4.85,1111122 
DISL,ioos:station:DISL:MHPA:1,2017-10-03T04:30:00Z,30.6671,-87.9365,1.342,4.82,1111122 
DISL,ioos:station:DISL:MHPA:1,2017-10-03T05:00:00Z,30.6671,-87.9365,1.363,4.84,1111122 
DISL,ioos:station:DISL:MHPA:1,2017-10-03T05:30:00Z,30.6671,-87.9365,1.356,4.73,1111122 
DISL,ioos:station:DISL:MHPA:1,2017-10-03T06:00:00Z,30.6671,-87.9365,1.403,4.7,1111122 
DISL,ioos:station:DISL:MHPA:1,2017-10-03T06:30:00Z,30.6671,-87.9365,1.41,4.68,1111122 
DISL,ioos:station:DISL:MHPA:1,2017-10-03T07:00:00Z,30.6671,-87.9365,1.396,4.91,1111122 
DISL,ioos:station:DISL:MHPA:1,2017-10-03T07:30:00Z,30.6671,-87.9365,1.394,4.83,1111122 
DISL,ioos:station:DISL:MHPA:1,2017-10-03T08:00:00Z,30.6671,-87.9365,1.41,4.89,1111122 
DISL,ioos:station:DISL:MHPA:1,2017-10-03T08:30:00Z,30.6671,-87.9365,1.414,4.87,1111122 
DISL,ioos:station:DISL:MHPA:1,2017-10-03T09:00:00Z,30.6671,-87.9365,1.404,5.15,1111122 
DISL,ioos:station:DISL:MHPA:1,2017-10-03T09:30:00Z,30.6671,-87.9365,1.419,4.98,1111122 
DISL,ioos:station:DISL:MHPA:1,2017-10-03T10:00:00Z,30.6671,-87.9365,1.429,4.86,1111122 
DISL,ioos:station:DISL:MHPA:1,2017-10-03T10:30:00Z,30.6671,-87.9365,1.446,4.89,1111122 
DISL,ioos:station:DISL:MHPA:1,2017-10-03T11:00:00Z,30.6671,-87.9365,1.471,5.06,1111122 
DISL,ioos:station:DISL:MHPA:1,2017-10-03T11:30:00Z,30.6671,-87.9365,1.475,5.0,1111122 
DISL,ioos:station:DISL:MHPA:1,2017-10-03T12:00:00Z,30.6671,-87.9365,1.47,4.95,1111122 
DISL,ioos:station:DISL:MHPA:1,2017-10-03T12:30:00Z,30.6671,-87.9365,1.475,4.99,1111122 
DISL,ioos:station:DISL:MHPA:1,2017-10-03T13:00:00Z,30.6671,-87.9365,1.474,5.12,1111122 
DISL,ioos:station:DISL:MHPA:1,2017-10-03T13:30:00Z,30.6671,-87.9365,1.477,5.12,1111122 
DISL,ioos:station:DISL:MHPA:1,2017-10-03T14:00:00Z,30.6671,-87.9365,1.504,4.96,1111122 
DISL,ioos:station:DISL:MHPA:1,2017-10-03T14:30:00Z,30.6671,-87.9365,1.524,4.8,1111122 
DISL,ioos:station:DISL:MHPA:1,2017-10-03T15:00:00Z,30.6671,-87.9365,1.542,4.78,1111122 
DISL,ioos:station:DISL:MHPA:1,2017-10-03T15:30:00Z,30.6671,-87.9365,1.562,4.73,1111122 
DISL,ioos:station:DISL:MHPA:1,2017-10-03T16:00:00Z,30.6671,-87.9365,1.569,4.79,1111122 
DISL,ioos:station:DISL:MHPA:1,2017-10-03T16:30:00Z,30.6671,-87.9365,1.562,4.88,1111122 
DISL,ioos:station:DISL:MHPA:1,2017-10-03T17:00:00Z,30.6671,-87.9365,1.566,4.99,1111122 
DISL,ioos:station:DISL:MHPA:1,2017-10-03T17:30:00Z,30.6671,-87.9365,1.559,4.98,1111122 
DISL,ioos:station:DISL:MHPA:1,2017-10-03T18:00:00Z,30.6671,-87.9365,1.541,4.89,1111122 
DISL,ioos:station:DISL:MHPA:1,2017-10-03T18:30:00Z,30.6671,-87.9365,1.526,4.88,1111122 
DISL,ioos:station:DISL:MHPA:1,2017-10-03T19:00:00Z,30.6671,-87.9365,1.511,4.98,1111122 
DISL,ioos:station:DISL:MHPA:1,2017-10-03T19:30:00Z,30.6671,-87.9365,1.482,4.95,1111122 
DISL,ioos:station:DISL:MHPA:1,2017-10-03T20:00:00Z,30.6671,-87.9365,1.465,5.1,1111122 
DISL,ioos:station:DISL:MHPA:1,2017-10-03T20:30:00Z,30.6671,-87.9365,1.437,5.11,1111122 
DISL,ioos:station:DISL:MHPA:1,2017-10-03T21:00:00Z,30.6671,-87.9365,1.409,5.17,1111122 
DISL,ioos:station:DISL:MHPA:1,2017-10-03T21:30:00Z,30.6671,-87.9365,1.367,5.36,1111122 
DISL,ioos:station:DISL:MHPA:1,2017-10-03T22:00:00Z,30.6671,-87.9365,1.3,5.4,11111222 
DISL,ioos:station:DISL:MHPA:1,2017-10-03T22:30:00Z,30.6671,-87.9365,1.311,5.66,1111122 
DISL,ioos:station:DISL:MHPA:1,2017-10-03T23:00:00Z,30.6671,-87.9365,1.3,5.5,11111222 
DISL,ioos:station:DISL:MHPA:1,2017-10-03T23:30:00Z,30.6671,-87.9365,1.3,5.44,1111122 
DISL,ioos:station:DISL:MHPA:1,2017-10-04T00:00:00Z,30.6671,-87.9365,1.3,5.6,11111222 
DISL,ioos:station:DISL:MHPA:1,2017-10-04T00:30:00Z,30.6671,-87.9365,1.268,5.48,1111122 
DISL,ioos:station:DISL:MHPA:1,2017-10-04T01:00:00Z,30.6671,-87.9365,1.3,5.4,11111222 
DISL,ioos:station:DISL:MHPA:1,2017-10-04T01:30:00Z,30.6671,-87.9365,1.253,5.56,1111122 
DISL,ioos:station:DISL:MHPA:1,2017-10-04T02:00:00Z,30.6671,-87.9365,1.3,5.5,11111222 
DISL,ioos:station:DISL:MHPA:1,2017-10-04T02:30:00Z,30.6671,-87.9365,1.247,5.58,1111122 
DISL,ioos:station:DISL:MHPA:1,2017-10-04T03:00:00Z,30.6671,-87.9365,1.3,5.6,11111222 
DISL,ioos:station:DISL:MHPA:1,2017-10-04T03:30:00Z,30.6671,-87.9365,1.24,5.65,1111122 
DISL,ioos:station:DISL:MHPA:1,2017-10-04T04:00:00Z,30.6671,-87.9365,1.2,5.7,11111222 
DISL,ioos:station:DISL:MHPA:1,2017-10-04T04:30:00Z,30.6671,-87.9365,1.227,5.57,1111122 
DISL,ioos:station:DISL:MHPA:1,2017-10-04T05:00:00Z,30.6671,-87.9365,1.2,5.6,11111222 
DISL,ioos:station:DISL:MHPA:1,2017-10-04T05:30:00Z,30.6671,-87.9365,1.213,5.63,1111122 
DISL,ioos:station:DISL:MHPA:1,2017-10-04T06:00:00Z,30.6671,-87.9365,1.2,5.6,11111222 
DISL,ioos:station:DISL:MHPA:1,2017-10-04T06:30:00Z,30.6671,-87.9365,1.211,5.6,1111122 
DISL,ioos:station:DISL:MHPA:1,2017-10-04T07:00:00Z,30.6671,-87.9365,1.2,5.6,11111222 
DISL,ioos:station:DISL:MHPA:1,2017-10-04T07:30:00Z,30.6671,-87.9365,1.221,5.64,1111122 
DISL,ioos:station:DISL:MHPA:1,2017-10-04T08:00:00Z,30.6671,-87.9365,1.2,5.6,11111222 
DISL,ioos:station:DISL:MHPA:1,2017-10-04T08:30:00Z,30.6671,-87.9365,1.209,5.64,1111122 
DISL,ioos:station:DISL:MHPA:1,2017-10-04T09:00:00Z,30.6671,-87.9365,1.2,5.7,11111222 
DISL,ioos:station:DISL:MHPA:1,2017-10-04T09:30:00Z,30.6671,-87.9365,1.218,5.69,1111122 
DISL,ioos:station:DISL:MHPA:1,2017-10-04T10:00:00Z,30.6671,-87.9365,1.2,5.7,11111222 
DISL,ioos:station:DISL:MHPA:1,2017-10-04T10:30:00Z,30.6671,-87.9365,1.2,5.7,11111222 
DISL,ioos:station:DISL:MHPA:1,2017-10-04T11:00:00Z,30.6671,-87.9365,1.214,5.7,1111122 
DISL,ioos:station:DISL:MHPA:1,2017-10-04T11:30:00Z,30.6671,-87.9365,1.2,5.7,11111222 
DISL,ioos:station:DISL:MHPA:1,2017-10-04T12:00:00Z,30.6671,-87.9365,1.3,5.7,11111222 
DISL,ioos:station:DISL:MHPA:1,2017-10-04T12:30:00Z,30.6671,-87.9365,1.272,5.77,1111122 
DISL,ioos:station:DISL:MHPA:1,2017-10-04T13:00:00Z,30.6671,-87.9365,1.3,5.8,11111222 
DISL,ioos:station:DISL:MHPA:1,2017-10-04T13:30:00Z,30.6671,-87.9365,1.271,5.74,1111122 
DISL,ioos:station:DISL:MHPA:1,2017-10-04T14:00:00Z,30.6671,-87.9365,1.3,5.7,11111222 
DISL,ioos:station:DISL:MHPA:1,2017-10-04T14:30:00Z,30.6671,-87.9365,1.329,5.55,1111122 
DISL,ioos:station:DISL:MHPA:1,2017-10-04T15:00:00Z,30.6671,-87.9365,1.4,5.5,11111222 
DISL,ioos:station:DISL:MHPA:1,2017-10-04T15:30:00Z,30.6671,-87.9365,1.363,5.46,1111122 
DISL,ioos:station:DISL:MHPA:1,2017-10-04T16:00:00Z,30.6671,-87.9365,1.4,5.6,11111222 
DISL,ioos:station:DISL:MHPA:1,2017-10-04T16:30:00Z,30.6671,-87.9365,1.394,5.53,1111122 
DISL,ioos:station:DISL:MHPA:1,2017-10-04T17:00:00Z,30.6671,-87.9365,1.4,5.5,11111222 
DISL,ioos:station:DISL:MHPA:1,2017-10-04T17:30:00Z,30.6671,-87.9365,1.43,5.55,1111122 
DISL,ioos:station:DISL:MHPA:1,2017-10-04T18:00:00Z,30.6671,-87.9365,1.4,5.6,11111222 
DISL,ioos:station:DISL:MHPA:1,2017-10-04T18:30:00Z,30.6671,-87.9365,1.432,5.57,1111122 
DISL,ioos:station:DISL:MHPA:1,2017-10-04T19:00:00Z,30.6671,-87.9365,1.4,5.6,11111222 
DISL,ioos:station:DISL:MHPA:1,2017-10-04T19:30:00Z,30.6671,-87.9365,1.461,5.66,1111122 
DISL,ioos:station:DISL:MHPA:1,2017-10-04T20:00:00Z,30.6671,-87.9365,1.4,5.6,11111222 
DISL,ioos:station:DISL:MHPA:1,2017-10-04T20:30:00Z,30.6671,-87.9365,1.421,5.63,1111122 
DISL,ioos:station:DISL:MHPA:1,2017-10-04T21:00:00Z,30.6671,-87.9365,1.4,5.7,11111222 
DISL,ioos:station:DISL:MHPA:1,2017-10-04T21:30:00Z,30.6671,-87.9365,1.369,5.65,1111122 
DISL,ioos:station:DISL:MHPA:1,2017-10-04T22:00:00Z,30.6671,-87.9365,1.3,5.7,11111222 
DISL,ioos:station:DISL:MHPA:1,2017-10-04T22:30:00Z,30.6671,-87.9365,1.32,5.66,1111122 
DISL,ioos:station:DISL:MHPA:1,2017-10-04T23:00:00Z,30.6671,-87.9365,1.3,5.6,11111222 
DISL,ioos:station:DISL:MHPA:1,2017-10-04T23:30:00Z,30.6671,-87.9365,1.281,5.64,1111122 
DISL,ioos:station:DISL:MHPA:1,2017-10-05T00:00:00Z,30.6671,-87.9365,1.3,5.6,11111222 
DISL,ioos:station:DISL:MHPA:1,2017-10-05T00:30:00Z,30.6671,-87.9365,1.267,5.62,1111122 
DISL,ioos:station:DISL:MHPA:1,2017-10-05T01:00:00Z,30.6671,-87.9365,1.3,5.6,11111222 
DISL,ioos:station:DISL:MHPA:1,2017-10-05T01:30:00Z,30.6671,-87.9365,1.269,5.62,1111122 
DISL,ioos:station:DISL:MHPA:1,2017-10-05T02:00:00Z,30.6671,-87.9365,1.3,5.6,11111222 
DISL,ioos:station:DISL:MHPA:1,2017-10-05T02:30:00Z,30.6671,-87.9365,1.289,5.63,1111122 
DISL,ioos:station:DISL:MHPA:1,2017-10-05T03:00:00Z,30.6671,-87.9365,1.3,5.7,11111222 
DISL,ioos:station:DISL:MHPA:1,2017-10-05T03:30:00Z,30.6671,-87.9365,1.305,5.67,1111122 
DISL,ioos:station:DISL:MHPA:1,2017-10-05T04:00:00Z,30.6671,-87.9365,1.3,5.6,11111222 
DISL,ioos:station:DISL:MHPA:1,2017-10-05T04:30:00Z,30.6671,-87.9365,1.327,5.58,1111122 
DISL,ioos:station:DISL:MHPA:1,2017-10-05T05:00:00Z,30.6671,-87.9365,1.3,5.6,11111222 
DISL,ioos:station:DISL:MHPA:1,2017-10-05T05:30:00Z,30.6671,-87.9365,1.289,5.61,1111122 
DISL,ioos:station:DISL:MHPA:1,2017-10-05T06:00:00Z,30.6671,-87.9365,1.3,5.6,11111222 
DISL,ioos:station:DISL:MHPA:1,2017-10-05T06:30:00Z,30.6671,-87.9365,1.29,5.6,1111122 
DISL,ioos:station:DISL:MHPA:1,2017-10-05T07:00:00Z,30.6671,-87.9365,1.3,5.6,11111222 
DISL,ioos:station:DISL:MHPA:1,2017-10-05T07:30:00Z,30.6671,-87.9365,1.298,5.62,1111122 
DISL,ioos:station:DISL:MHPA:1,2017-10-05T08:00:00Z,30.6671,-87.9365,1.3,5.6,11111222 
DISL,ioos:station:DISL:MHPA:1,2017-10-05T08:30:00Z,30.6671,-87.9365,1.274,5.58,1111122 
DISL,ioos:station:DISL:MHPA:1,2017-10-05T09:00:00Z,30.6671,-87.9365,1.3,5.6,11111222 
DISL,ioos:station:DISL:MHPA:1,2017-10-05T09:30:00Z,30.6671,-87.9365,1.265,5.61,1111122 
DISL,ioos:station:DISL:MHPA:1,2017-10-05T10:00:00Z,30.6671,-87.9365,1.3,5.6,11111222 
DISL,ioos:station:DISL:MHPA:1,2017-10-05T10:30:00Z,30.6671,-87.9365,1.256,5.61,1111122 
DISL,ioos:station:DISL:MHPA:1,2017-10-05T11:00:00Z,30.6671,-87.9365,1.3,5.6,11111222 
DISL,ioos:station:DISL:MHPA:1,2017-10-05T11:30:00Z,30.6671,-87.9365,1.248,5.65,1111122 
DISL,ioos:station:DISL:MHPA:1,2017-10-05T12:00:00Z,30.6671,-87.9365,1.3,5.7,11111222 
DISL,ioos:station:DISL:MHPA:1,2017-10-05T12:30:00Z,30.6671,-87.9365,1.246,5.68,1111122 
DISL,ioos:station:DISL:MHPA:1,2017-10-05T13:00:00Z,30.6671,-87.9365,1.3,5.7,11111222 
DISL,ioos:station:DISL:MHPA:1,2017-10-05T13:30:00Z,30.6671,-87.9365,1.295,5.68,1111122 
DISL,ioos:station:DISL:MHPA:1,2017-10-05T14:00:00Z,30.6671,-87.9365,1.3,5.7,11111222 
DISL,ioos:station:DISL:MHPA:1,2017-10-05T14:30:00Z,30.6671,-87.9365,1.345,5.65,1111122 
DISL,ioos:station:DISL:MHPA:1,2017-10-05T15:00:00Z,30.6671,-87.9365,1.4,5.7,11111222 
DISL,ioos:station:DISL:MHPA:1,2017-10-05T15:30:00Z,30.6671,-87.9365,1.378,5.64,1111122 
DISL,ioos:station:DISL:MHPA:1,2017-10-05T16:00:00Z,30.6671,-87.9365,1.4,5.6,11111222 
DISL,ioos:station:DISL:MHPA:1,2017-10-05T16:30:00Z,30.6671,-87.9365,1.428,5.56,1111122 
DISL,ioos:station:DISL:MHPA:1,2017-10-05T17:00:00Z,30.6671,-87.9365,1.4,5.6,11111222 
DISL,ioos:station:DISL:MHPA:1,2017-10-05T17:30:00Z,30.6671,-87.9365,1.432,5.61,1111122 
DISL,ioos:station:DISL:MHPA:1,2017-10-05T18:00:00Z,30.6671,-87.9365,1.4,5.6,11111222 
DISL,ioos:station:DISL:MHPA:1,2017-10-05T18:30:00Z,30.6671,-87.9365,1.452,5.55,1111122 
DISL,ioos:station:DISL:MHPA:1,2017-10-05T19:00:00Z,30.6671,-87.9365,1.5,5.6,11111222 
DISL,ioos:station:DISL:MHPA:1,2017-10-05T19:30:00Z,30.6671,-87.9365,1.471,5.55,1111122 
DISL,ioos:station:DISL:MHPA:1,2017-10-05T20:00:00Z,30.6671,-87.9365,1.5,5.6,11111222 
DISL,ioos:station:DISL:MHPA:1,2017-10-05T20:30:00Z,30.6671,-87.9365,1.476,5.61,1111122 
DISL,ioos:station:DISL:MHPA:1,2017-10-05T21:00:00Z,30.6671,-87.9365,1.5,5.6,11111222 
DISL,ioos:station:DISL:MHPA:1,2017-10-05T21:30:00Z,30.6671,-87.9365,1.45,5.6,1111122 
DISL,ioos:station:DISL:MHPA:1,2017-10-05T22:00:00Z,30.6671,-87.9365,1.4,5.6,11111222 
DISL,ioos:station:DISL:MHPA:1,2017-10-05T22:30:00Z,30.6671,-87.9365,1.403,5.64,1111122 
DISL,ioos:station:DISL:MHPA:1,2017-10-05T23:00:00Z,30.6671,-87.9365,1.4,5.7,11111222 
DISL,ioos:station:DISL:MHPA:1,2017-10-05T23:30:00Z,30.6671,-87.9365,1.338,5.64,1111122 
DISL,ioos:station:DISL:MHPA:1,2017-10-06T00:00:00Z,30.6671,-87.9365,1.3,5.7,11111222 
DISL,ioos:station:DISL:MHPA:1,2017-10-06T00:30:00Z,30.6671,-87.9365,1.293,5.62,1111122 
DISL,ioos:station:DISL:MHPA:1,2017-10-06T01:00:00Z,30.6671,-87.9365,1.3,5.6,11111222 
DISL,ioos:station:DISL:MHPA:1,2017-10-06T01:30:00Z,30.6671,-87.9365,1.268,5.61,1111122 
DISL,ioos:station:DISL:MHPA:1,2017-10-06T02:00:00Z,30.6671,-87.9365,1.3,5.6,11111222 
DISL,ioos:station:DISL:MHPA:1,2017-10-06T02:30:00Z,30.6671,-87.9365,1.279,5.64,1111122 
DISL,ioos:station:DISL:MHPA:1,2017-10-06T03:00:00Z,30.6671,-87.9365,1.3,5.7,11111222 
DISL,ioos:station:DISL:MHPA:1,2017-10-06T03:30:00Z,30.6671,-87.9365,1.282,6.0,1111122 
DISL,ioos:station:DISL:MHPA:1,2017-10-06T04:00:00Z,30.6671,-87.9365,1.3,5.9,11111222 
DISL,ioos:station:DISL:MHPA:1,2017-10-06T04:30:00Z,30.6671,-87.9365,1.286,5.8,1111122 
DISL,ioos:station:DISL:MHPA:1,2017-10-06T05:00:00Z,30.6671,-87.9365,1.3,5.8,11111222 
DISL,ioos:station:DISL:MHPA:1,2017-10-06T05:30:00Z,30.6671,-87.9365,1.262,5.77,1111122 
DISL,ioos:station:DISL:MHPA:1,2017-10-06T06:00:00Z,30.6671,-87.9365,1.3,5.8,11111222 
DISL,ioos:station:DISL:MHPA:1,2017-10-06T06:30:00Z,30.6671,-87.9365,1.249,5.83,1111122 
DISL,ioos:station:DISL:MHPA:1,2017-10-06T07:00:00Z,30.6671,-87.9365,1.3,5.8,11111222 
DISL,ioos:station:DISL:MHPA:1,2017-10-06T07:30:00Z,30.6671,-87.9365,1.238,5.84,1111122 
DISL,ioos:station:DISL:MHPA:1,2017-10-06T08:00:00Z,30.6671,-87.9365,1.2,5.8,11111222 
DISL,ioos:station:DISL:MHPA:1,2017-10-06T08:30:00Z,30.6671,-87.9365,1.228,5.82,1111122 
DISL,ioos:station:DISL:MHPA:1,2017-10-06T09:00:00Z,30.6671,-87.9365,1.2,5.8,11111222 
DISL,ioos:station:DISL:MHPA:1,2017-10-06T09:30:00Z,30.6671,-87.9365,1.203,5.84,1111122 
DISL,ioos:station:DISL:MHPA:1,2017-10-06T10:00:00Z,30.6671,-87.9365,1.2,5.8,11111222 
DISL,ioos:station:DISL:MHPA:1,2017-10-06T10:30:00Z,30.6671,-87.9365,1.2,5.84,1111122 
DISL,ioos:station:DISL:MHPA:1,2017-10-06T11:00:00Z,30.6671,-87.9365,1.2,5.8,11111222 
DISL,ioos:station:DISL:MHPA:1,2017-10-06T11:30:00Z,30.6671,-87.9365,1.164,5.8,1111122 
DISL,ioos:station:DISL:MHPA:1,2017-10-06T12:00:00Z,30.6671,-87.9365,1.2,5.8,11111222 
DISL,ioos:station:DISL:MHPA:1,2017-10-06T12:30:00Z,30.6671,-87.9365,1.177,5.86,1111122 
DISL,ioos:station:DISL:MHPA:1,2017-10-06T13:00:00Z,30.6671,-87.9365,1.2,5.8,11111222 
DISL,ioos:station:DISL:MHPA:1,2017-10-06T13:30:00Z,30.6671,-87.9365,1.163,5.83,1111122 
DISL,ioos:station:DISL:MHPA:1,2017-10-06T14:00:00Z,30.6671,-87.9365,1.2,5.8,11111222 
DISL,ioos:station:DISL:MHPA:1,2017-10-06T14:30:00Z,30.6671,-87.9365,1.217,5.84,1111122 
DISL,ioos:station:DISL:MHPA:1,2017-10-06T15:00:00Z,30.6671,-87.9365,1.2,5.9,11111222 
DISL,ioos:station:DISL:MHPA:1,2017-10-06T15:30:00Z,30.6671,-87.9365,1.248,5.84,1111122 
DISL,ioos:station:DISL:MHPA:1,2017-10-06T16:00:00Z,30.6671,-87.9365,1.3,5.8,11111222 